Torna al catalogo

DELTA 1 DEB

AttivoSSO
NORAD 12167·DEBRIS·🇺🇸 United States

Lanciato Mar 5, 1978 da Vandenberg Space Force Base

Loading…

Prossimi Passaggi (prossime 24 ore)

TLE

AggiornatoSource: Space-Track

Epoca: Sep 14, 2026, 08:03 UTC

1 12167U 78026G   26257.33607137  .00000340  00000-0  17285-3 0  9995
2 12167  98.7640 202.6614 0157268 290.5629 222.5933 14.16150605344507

Traccia DELTA 1 DEB in tempo reale con AllMySat

Download on the App Store